IRIDIUM 36

Last updated on Wed Nov 29 2017 00:19:02 GMT+0000 (Coordinated Universal Time)

1 24967U 97056C 17332.48599231 .00000126 00000-0 36735-4 0 9999 2 24967 86.3997 248.9076 0002095 79.8366 280.3067 14.35635197 56431
UTC large
Height (km)
Speed (km/s)
/
Latitude / Longitude
Inclination (degrees)
Orbital Period (minutes)
Azimuth
Elevation
Range (km)
Doppler Factor

Next 0 passes for location: London (51.5072 / 0.1276)

Sorry there are no passes over London.